カタログに戻る

STARLINK-5242

運用中通信VLEO
NORAD 54173·PAYLOAD·🇺🇸 United States

打ち上げ Oct 28, 2022 から Vandenberg Space Force Base

Loading…

次のパス (今後24時間)

TLE

最新Source: CelesTrak SupGP

元期: Sep 14, 2026, 22:06 UTC

1 54173C 22141S   26257.92131944  .00005815  00000+0  17180-3 0  2570
2 54173  53.1575 219.9504 0001294  93.9296 328.3431 15.34388917    16

AllMySatでSTARLINK-5242をリアルタイム追跡

Download on the App Store